Other Public Products
Issued by NWS Grand Forks, ND

Home | Current Version | Previous Version | Text Only | Print | Product List | Glossary Off
Versions: 1 2 3 4 5 6 7 8 9 10 11 12 13 14 15 16 17 18 19 20 21 22 23 24 25 26 27 28 29 30 31 32 33 34 35 36 37 38 39 40 41 42 43 44 45 46 47 48 49 50

000
FPUS83 KFGF 181431
OPUFGF
PRAIRIE TO PINES WEATHER ROUNDUP
NATIONAL WEATHER SERVICE EASTERN NORTH DAKOTA/GRAND FORKS ND
800 AM CST THU DEC 18 2014

 **SATELLITE DATA USED TO AUGMENT SKY COVER AT AUTOMATED STATIONS**
 *****  WEATHER ACROSS EASTERN NORTH DAKOTA  *****

CITY           SKY/WX    TMP DP  RH WIND       PRES   REMARKS
GRAND FORKS    MOCLDY     7   4  87 SE6       30.24F WCI  -3
GRAND FORKS AF PTCLDY     7   7  98 SE2       30.23F
GRAND CITY NWS NOT AVBL
BUXTON           N/A      8   7  93 SE5         N/A  WCI   0
DEVILS LAKE    CLOUDY    12   5  73 SE9       30.12F WCI   0
FARGO          MOCLDY    11   6  81 SE8       30.25S WCI  -1
WAHPETON ARPT  CLOUDY     9   5  85 SE3       30.26S
$$

 *****  WEATHER ACROSS CENTRAL AND WESTERN NORTH DAKOTA  *****

CITY           SKY/WX    TMP DP  RH WIND       PRES   REMARKS
JAMESTOWN      CLOUDY    15  12  88 SE8       30.14F WCI   4
BISMARCK       CLOUDY    17  15  92 SE8       30.09F WCI   7
MINOT          CLOUDY    16  12  84 SE5       30.05F WCI   9
MINOT AFB      CLOUDY    12  11  98 SE7       30.05F WCI   1
GARRISON         N/A     18  15  88 SE9       30.04S WCI   7
WILLISTON      CLOUDY    21  17  84 SE5       30.00S WCI  15
DICKINSON      CLOUDY    22  18  85 S7        29.95S WCI  13
HETTINGER      CLOUDY    23  20  88 S6        29.98S WCI  16
$$

 *****  OTHER OBSERVATIONS NORTHEAST NORTH DAKOTA  *****

CITY           SKY/WX    TMP DP  RH WIND       PRES   REMARKS
WALHALLA         N/A      1   1 100 CALM      30.22S
LANGDON        FAIR       7   3  85 SE7       30.13F WCI  -5
CAVALIER       FAIR       7   5  92 SE3       30.23S FOG
GRAFTON        NOT AVBL
CANDO          CLOUDY    10   9  92 SE8       30.14S WCI  -1
FORT TOTTEN    NOT AVBL
ROLLA          CLOUDY     7   7 100 S8        30.10S WCI  -6
RUGBY          FAIR      10   9  92 SE7       30.10F WCI   0
 ***** THE ABOVE OBSERVATIONS ARE NON NWS ARE NOT QUALITY
        CONTROLLED AND MAY MIS-REPORT RAIN FOR SNOW...
$$

 *****  OTHER OBSERVATIONS SOUTHEAST NORTH DAKOTA *****

CITY           SKY/WX    TMP DP  RH WIND       PRES   REMARKS
COOPERSTOWN    NOT AVBL
VALLEY CITY    CLOUDY    12  12 100 SE3       30.18S
OAKES            N/A     16  14  93 SE6       30.18F WCI   7
GWINNER        CLOUDY    18  18 100 MISG      30.21S
SHEYENNE NWR     N/A     12   9  86 SE2       29.95S
BUFFALO        NOT AVBL
WYNDMERE         N/A     10   9  92 SE3         N/A
 ***** THE ABOVE OBSERVATIONS ARE NON NWS ARE NOT QUALITY
       CONTROLLED AND MAY MIS-REPORT RAIN FOR SNOW...
$$

  *****  WEATHER ACROSS NORTHERN MINNESOTA  *****

CITY           SKY/WX    TMP DP  RH WIND       PRES   REMARKS
FLAG ISLAND    MOCLDY     7   3  85 SE6       30.26S WCI  -3
WARROAD        PTCLDY     3   0  85 CALM      30.26S
ROSEAU         CLEAR      7   1  78 CALM      30.25S
HALLOCK        PTCLDY     5   1  85 SE5       30.25S WCI  -4
THF RVR FALLS  PTCLDY     7   3  85 SE6       30.24S WCI  -3
HALSTAD          N/A      8   3  82 SE2         N/A
FOSSTON        MOCLDY     5   1  85 E5        30.24S WCI  -4
BAUDETTE       MOCLDY     4   0  83 SE3       30.27S
WASKISH        MOCLDY     1   0  92 CALM      30.27R
CROOKSTON      PTCLDY     7   3  85 SE5       30.26F WCI  -2
$$
  *****  WEATHER ACROSS CENTRAL AND WEST MINNESOTA  *****

CITY           SKY/WX    TMP DP  RH WIND       PRES   REMARKS
BEMIDJI        PTCLDY     6   3  88 SE3       30.25S
PARK RAPIDS    PTCLDY     6   2  83 E3        30.23F
WADENA         MOCLDY     3   1  92 CALM      30.24S
DETROIT LAKES  PTCLDY     9   7  92 SE5       30.24R WCI   0
MOORHEAD       MOCLDY    10   9  92 SE5       30.25F WCI   2
FERGUS FALLS   MOCLDY     9   3  78 SE8       30.28S WCI  -4
ELBOW LAKE     FAIR       8   5  89 SE6       30.25R WCI  -3
MORRIS MN      MOCLDY     7   5  92 SE5       30.25S WCI  -2
STAPLES        PTCLDY     3   1  92 E3        30.26R
WHEATON        MOCLDY     7   5  92 SE3       30.27S
$$
  *****  WEATHER ELSEWHERE ACROSS MINNESOTA  *****

CITY           SKY/WX    TMP DP  RH WIND       PRES   REMARKS
DULUTH         FLURRIES  19  15  84 N5        30.26S WCI  12
INTRNTL FALLS  MOCLDY    -1  -5  82 E3        30.29S
ELY            CLOUDY     9   7  92 CALM      30.29R
CLOQUET        CLOUDY    18  16  93 CALM      30.28R
BRAINERD       CLOUDY     7   4  87 CALM      30.27S
HIBBING        FLURRIES  16  11  80 CALM      30.28S
ALEXANDRIA     PTCLDY     9   6  88 SE5       30.24S WCI   1
SAINT CLOUD    CLOUDY    12   7  80 CALM      30.28S
MINNEAPOLIS    FLURRIES  16  12  84 CALM      30.30S
$$

  *****  WEATHER ACROSS SOUTH DAKOTA  *****

CITY           SKY/WX    TMP DP  RH WIND       PRES   REMARKS
SIOUX FALLS    CLOUDY    20  16  84 SE6       30.22S WCI  12
BROOKINGS      NOT AVBL
WATERTOWN      CLOUDY    17  12  80 S7        30.18S WCI   8
HURON          CLOUDY    19  16  88 SE6       30.19S WCI  11
SISSETON         N/A     13  10  88 S8        30.22F WCI   2
ABERDEEN       CLOUDY    19  13  77 S6        30.19S WCI  11
MITCHELL       LGT SNOW  21  18  88 SE8       30.21S FOG     WCI  11
PIERRE         CLOUDY    21  20  96 E6        30.10S WCI  13
MOBRIDGE       CLOUDY    21  18  88 S13       30.07S WCI   9
RAPID CITY     FOG       21  19  92 S6        30.00S VSB 1/4 WCI  13
$$

  *****  SOME WEATHER IN NEARBY STATES *****

CITY           SKY/WX    TMP DP  RH WIND       PRES   REMARKS
GLASGOW MT     CLOUDY    25  21  85 E5        29.94F WCI  19
GREAT FALLS MT MOCLDY    33  25  72 S15       29.90R WCI  23
CHEYENNE WY    CLEAR     27  15  61 W13       30.00R WCI  16
SCOTTSBLUFF NE LGT SNOW   7   4  87 NW5       30.05S FOG     WCI  -2
OMAHA NE       LGT SNOW  26  23  88 SE6       30.26R FOG     WCI  19
DES MOINES IA  CLOUDY    23  16  74 E5        30.29S WCI  17
DAVENPORT IA   CLOUDY    18  14  84 CALM      30.31S
CHICAGO IL     MOCLDY    20  15  81 W6        30.29R WCI  12
EAU CLAIRE WI  CLOUDY    22  19  89 CALM      30.29R
LA CROSSE WI   CLOUDY    22  16  78 CALM      30.31R
$$

  *****  SOME NATIONAL WEATHER *****

CITY           SKY/WX    TMP DP  RH WIND       PRES   REMARKS
LA GUARDIA NY  MOSUNNY   39  24  55 NW22G29   29.98R
RALEIGH NC     PTSUNNY   37  27  67 CALM      30.19R
ATLANTA GA     PTSUNNY   39  31  72 NW8       30.17S
NEW ORLEANS LA PTSUNNY   56  49  77 NE9       30.19R
OKLAHOMA CITY  DRIZZLE   39  37  93 SE5       30.14S FOG
ALBUQUERQUE NM PTCLDY    29  26  89 CALM      30.15R
SALT LAKE CITY MOCLDY    31  30  96 SW3       30.11R
LOS ANGELES CA MOCLDY    50  45  83 E3        30.14R
BOISE ID       CLOUDY    35  32  88 CALM      30.07R
SEATTLE WA     CLOUDY    44  42  93 SE5       29.94S
$$

*** WEATHER ACROSS MANITOBA...SASKATCHEWAN AND ONTARIO ***
                ***ONTARIO***

CITY           SKY/WX    TMP DP  RH WIND       PRES   REMARKS
GERALDTON      CLEAR     -9 -13  84 W5        30.32R WCI -21
THUNDER BAY    PTCLDY    -6  -9  84 SW6       30.38  WCI -18
SIOUX LOOKOUT  PTCLDY   -13 -17  84 S3        30.31S
TORONTO        MOCLDY    30  23  74 NW15G23   30.09  WCI  19
BIG TROUT LK   CLEAR     -2  -6  84 SW3       30.24R
PICKLE LAKE    CLEAR     -6 -11  77 S5        30.29S WCI -17
DRYDEN         CLEAR     -2  -6  84 SE6       30.29R WCI -14
KENORA         PTCLDY     3  -2  78 SE7       30.25F WCI  -9
$$
                *** MANITOBA***

CITY           SKY/WX    TMP DP  RH WIND       PRES   REMARKS
BRANDON        PTCLDY    -4  -9  77 E7        30.13F WCI -18
DAUPHIN        CLEAR      1  -2  85 VRB2      30.11F
ISLAND LAKE    CLEAR      1  -4  78 S5        30.20F WCI  -8
PILOT MOUND      N/A      3   1  92 SE8         N/A  WCI -10
THE PAS        FLURRIES   7   5  92 SE3       30.04F
THOMPSON       FLURRIES   0  -6  78 S7        30.06S WCI -13
WINNIPEG       PTCLDY     5   0  78 S8        30.25S WCI  -8
LYNN LAKE      FLURRIES  12  10  92 SW7       29.92F WCI   2
CHURCHILL      CLEAR      3   0  85 W8        30.01S WCI -10
GILLAM         CLEAR      0  -4  85 SW8       30.09S WCI -15
$$
                ***SASKATCHEWAN***

CITY           SKY/WX    TMP DP  RH WIND       PRES   REMARKS
ESTEVAN        CLOUDY    16  12  86 SE7       30.01S WCI   6
KINDERSLEY     FOG       18  16  93 W6        29.85S VSB 3/8 WCI   9
LLOYDMINSTER   CLOUDY    16  14  93 W3        29.84S FOG
PRINCE ALBERT  LGT SNOW  18  16  93 S6        29.93  FOG     WCI   9
REGINA         FLURRIES  19  18  93 SE9       29.96F WCI   9


USA.gov is the U.S. government's official web portal to all federal, state and local government web resources and services.